Location: Albany
(35.0170°S, 117.8920°E)
Time: 18:13:36
(UTC+08:00)

Vanguard 1 Rocket - Visible Passes

Search period start: 24 January 2021 00:00
Search period end: 03 February 2021 00:00
Orbit: 655 x 4222 km, 34.3° (Epoch: 23 January)

Date Brightness Start Highest point End Pass type
(mag) Time Alt. Az. Time Alt. Az. Time Alt. Az.
24 Jan 10.4 00:40:07 10° WNW 01:03:30 87° N 01:28:41 10° E visible
24 Jan 10.4 03:11:30 10° W 03:38:09 81° NNW 03:57:56 10° ENE visible
24 Jan 10.2 21:02:22 10° NNW 21:17:00 47° NE 21:40:06 10° ESE visible
24 Jan 10.3 23:27:18 10° WNW 23:47:41 81° NNE 00:14:12 10° E visible
25 Jan 10.5 01:56:51 10° W 02:22:24 87° N 02:45:16 10° ENE visible
25 Jan 10.4 04:29:38 10° WSW 04:55:14 63° NNW 05:12:14 10° NE visible
25 Jan 10.3 19:53:06 10° N 20:04:46 31° NE 20:22:50 10° ESE visible
25 Jan 10.1 22:15:30 10° NW 22:32:46 70° NNE 22:58:55 10° ESE visible
26 Jan 10.4 00:43:04 10° W 01:06:14 88° N 01:31:37 10° E visible
26 Jan 10.4 03:14:17 10° WSW 03:40:39 76° NNW 04:00:44 10° ENE visible
26 Jan 10.0 21:04:42 10° NW 21:19:05 55° NE 21:42:53 10° ESE visible
26 Jan 10.3 23:30:13 10° WNW 23:50:18 85° NNE 00:17:02 10° E visible
27 Jan 10.5 01:59:45 10° W 02:25:04 84° NNW 02:48:10 10° ENE visible
27 Jan 10.5 04:32:24 10° WSW 04:57:21 55° NW 05:14:39 10° NE visible
27 Jan 10.1 19:54:57 10° NNW 20:06:40 38° NE 20:26:02 10° ESE visible
27 Jan 10.1 22:18:17 10° WNW 22:35:13 76° NNE 23:01:38 10° E visible
28 Jan 10.4 00:46:04 10° W 01:08:58 88° N 01:34:31 10° E visible
28 Jan 10.5 03:17:05 10° WSW 03:43:01 69° NNW 04:03:22 10° NE visible
28 Jan 9.9 21:07:14 10° NW 21:21:19 62° NNE 21:45:34 10° ESE visible
28 Jan 10.3 23:33:13 10° W 23:53:02 87° N 00:19:52 10° E visible
29 Jan 10.5 02:02:40 10° W 02:27:38 80° NNW 02:50:57 10° ENE visible
29 Jan 10.6 04:35:16 10° WSW 04:59:20 48° NW 05:16:48 10° NNE visible
29 Jan 9.9 19:57:10 10° NNW 20:08:43 45° NE 20:28:57 10° ESE visible
29 Jan 10.1 22:21:12 10° WNW 22:37:49 81° NNE 23:04:21 10° E visible
30 Jan 10.4 00:49:05 10° W 01:11:41 86° N 01:37:23 10° ENE visible
30 Jan 10.5 03:19:54 10° WSW 03:45:13 63° NNW 04:05:48 10° NE visible
30 Jan 9.9 21:10:00 10° NW 21:23:45 69° NNE 21:48:13 10° ESE visible
30 Jan 10.3 23:36:16 10° W 23:55:48 88° N 00:22:41 10° E visible
31 Jan 10.4 02:05:34 10° WSW 02:30:06 75° NNW 02:53:35 10° ENE visible
31 Jan 10.7 04:38:19 10° WSW 05:01:10 41° NW 05:18:39 10° NNE visible
31 Jan 9.7 19:59:38 10° NW 20:10:56 53° NE 20:31:43 10° ESE visible
31 Jan 10.1 22:24:13 10° WNW 22:40:33 85° N 23:07:05 10° E visible
01 Feb 10.4 00:52:05 10° W 01:14:21 83° NNW 01:40:08 10° ENE visible
01 Feb 10.5 03:22:47 10° WSW 03:47:18 56° NW 04:08:00 10° NE visible
01 Feb 9.8 21:12:54 10° WNW 21:26:21 76° NNE 21:50:51 10° E visible
01 Feb 10.3 23:39:21 10° W 23:58:35 88° N 00:25:29 10° E visible
02 Feb 10.4 02:08:28 10° WSW 02:32:26 69° NNW 02:56:02 10° NE visible
02 Feb 10.8 04:41:40 10° W 05:02:56 34° NW 05:20:06 10° N visible
02 Feb 9.6 20:02:19 10° NW 20:13:20 61° NNE 20:34:23 10° ESE visible
02 Feb 10.1 22:27:18 10° W 22:43:22 87° N 23:09:50 10° E visible
